TimeCST,TemperatureF,Dew PointF,Humidity,Sea Level PressureIn,VisibilityMPH,Wind Direction,Wind SpeedMPH,Gust SpeedMPH,PrecipitationIn,Events,Conditions,WindDirDegrees,DateUTC
6:00 AM,80,64,48,29.83,12,East,5.8,,,,Clear,80,2013-05-13 12:00:00
6:00 AM,80.6,64.4,58,29.82,-9999.0,East,5.8,-,N/A,,Clear,80,2013-05-13 12:00:00
7:00 AM,82.4,64.4,54,29.85,-9999.0,NE,16.1,-,N/A,,Clear,50,2013-05-13 13:00:00
8:00 AM,84.2,64.4,51,29.85,-9999.0,ENE,20.7,32.2,N/A,,Clear,70,2013-05-13 14:00:00
9:00 AM,85,61,34,29.87,12,ENE,20.7,,,,Overcast,70,2013-05-13 15:00:00
9:00 AM,84.2,60.8,45,29.86,-9999.0,ENE,20.7,32.2,N/A,,Clear,70,2013-05-13 15:00:00
10:00 AM,86.0,62.6,45,29.85,-9999.0,East,25.3,-,N/A,,Clear,80,2013-05-13 16:00:00
11:00 AM,89.6,62.6,40,29.85,-9999.0,ENE,25.3,-,N/A,,Clear,60,2013-05-13 17:00:00
12:00 PM,90,63,30,29.84,12,ENE,20.7,,,,Clear,60,2013-05-13 18:00:00
12:00 PM,89.6,62.6,40,29.82,-9999.0,ENE,20.7,32.2,N/A,,Clear,60,2013-05-13 18:00:00
1:00 PM,89.6,60.8,38,29.79,-9999.0,NE,23.0,-,N/A,,Clear,50,2013-05-13 19:00:00
2:00 PM,91.4,59.0,34,29.77,-9999.0,ENE,24.2,35.7,N/A,,Clear,60,2013-05-13 20:00:00
3:00 PM,90,60,27,29.78,12,ENE,26.5,,,,Clear,60,2013-05-13 21:00:00
3:00 PM,89.6,60.8,38,29.76,-9999.0,ENE,26.5,-,N/A,,Clear,60,2013-05-13 21:00:00
4:00 PM,91.4,59.0,34,29.77,-9999.0,NE,25.3,38.0,N/A,,Clear,50,2013-05-13 22:00:00
5:00 PM,89.6,59.0,36,29.79,-9999.0,ENE,26.5,38.0,N/A,,Clear,60,2013-05-13 23:00:00
6:00 PM,85,61,34,29.83,12,ENE,20.7,,,,Clear,70,2013-05-14 00:00:00
6:00 PM,86.0,60.8,43,29.82,-9999.0,ENE,20.7,-,N/A,,Clear,70,2013-05-14 00:00:00
7:00 PM,84.2,60.8,45,29.84,-9999.0,ENE,23.0,35.7,N/A,,Clear,70,2013-05-14 01:00:00
8:00 PM,82.4,60.8,48,29.85,-9999.0,East,20.7,32.2,N/A,,Clear,80,2013-05-14 02:00:00